Skip Page Navigation
NASA JPL Caltech
NASA Logo - Jet Propulsion Laboratory + View the NASA Portal
+ Center for Near-Earth Object Studies
JPL Home Earth Solar System Stars & Galaxies Technology
JPL Solar System Dynamics
BODIES ORBITS EPHEMERIDES TOOLS PHYSICAL DATA DISCOVERY FAQ SITE MAP
JPL Small-Body Database Browser
Search: [ help ]  
150944 (2001 TB106)
Classification: Main-belt Asteroid          SPK-ID: 2150944
Ephemeris | Orbit Diagram | Orbital Elements | Mission Design | Physical Parameters | Discovery Circumstances ]

[ show orbit diagram ]
Orbital Elements at Epoch 2459200.5 (2020-Dec-17.0) TDB
Reference: JPL 28 (heliocentric ecliptic J2000)
 Element Value Uncertainty (1-sigma)   Units 
e .141888445607654 4.4636e-08  
a 2.60397436518112 1.6907e-08 au
q 2.234500490103394 1.2132e-07 au
i 14.90310944548181 4.592e-06 deg
node 50.12134970736449 1.7876e-05 deg
peri 279.2256957266281 2.3196e-05 deg
M 275.4439848986792 1.6779e-05 deg
tp 2459560.991883095172
(2021-Dec-12.49188310)
7.2711e-05 TDB
period 1534.805983450784
4.20
1.4948e-05
4.093e-08
d
yr
n .2345573342049353 2.2844e-09 deg/d
Q 2.973448240258846 1.9306e-08 au
  Orbit Determination Parameters
   # obs. used (total)      1055  
   data-arc span      6821 days (18.67 yr)  
   first obs. used      2001-09-16  
   last obs. used      2020-05-20  
   planetary ephem.      DE441  
   SB-pert. ephem.      SB441-N16  
   condition code      0  
   norm. resid. RMS      .48551  
   source      ORB  
   producer      Otto Matic  
   solution date      2021-Apr-13 19:20:42  

Additional Information
 Earth MOID = 1.28088 au 
 Jupiter MOID = 2.45851 au 
 T_jup = 3.352 
[ show covariance matrix ]

Ephemeris | Orbit Diagram | Orbital Elements | Mission Design | Physical Parameters | Discovery Circumstances ]

Physical Parameter Table
Parameter Symbol Value Units Sigma Reference Notes
absolute magnitude H 14.54   n/a E2021B55  
diameter diameter 3.941 km 0.121 urn:nasa:pds:neowise_diameters_albedos::2.0[mainbelt] (http://adsabs.harvard.edu/abs/2011ApJ...741...68M)  
geometric albedo albedo 0.217   0.050 urn:nasa:pds:neowise_diameters_albedos::2.0[mainbelt] (http://adsabs.harvard.edu/abs/2011ApJ...741...68M)  

150944 (2001 TB106)          Discovered 2001-Oct-13 by LINEAR at Socorro
Reference: 20070303/Numbers.arcLast Updated: 2007-03-07
Ephemeris | Orbit Diagram | Orbital Elements | Mission Design | Physical Parameters | Discovery Circumstances ]
ABOUT SSD CREDITS/AWARDS PRIVACY/COPYRIGHT GLOSSARY LINKS
FirstGov 2021-Apr-15 15:36 UT
(server date/time)  
NASA Home Page
Site Manager:   Ryan S. Park
Webmaster  Alan B. Chamberlin